Date,TemperatureHighF,TemperatureAvgF,TemperatureLowF,DewpointHighF,DewpointAvgF,DewpointLowF,HumidityHigh,HumidityAvg,HumidityLow,PressureMaxIn,PressureMinIn,WindSpeedMaxMPH,WindSpeedAvgMPH,GustSpeedMaxMPH,PrecipitationSumIn
2013-3-11,40,30,26,27,24,20,89,77,55,29.95,29.77,8,2,9,0.00
2013-3-12,49,36,25,31,24,20,81,64,39,30.25,29.95,13,3,13,0.00
2013-3-13,51,34,24,25,21,18,80,61,36,30.41,30.25,10,2,10,0.00
2013-3-14,76,51,33,43,33,24,70,52,30,30.27,30.00,14,5,14,0.00
2013-3-15,81,62,44,51,44,36,74,54,32,30.03,29.63,16,6,16,0.00
2013-3-16,60,43,36,47,36,28,87,74,62,30.02,29.64,20,9,20,0.00
2013-3-17,36,33,31,32,29,26,93,85,74,30.02,29.69,15,8,19,0.00
2013-3-18,56,41,33,39,30,19,94,69,32,30.01,29.69,13,3,13,0.00
2013-3-19,43,35,27,34,24,15,92,66,36,30.18,30.00,11,1,11,0.00
2013-3-20,39,31,24,32,15,7,93,54,30,30.30,30.07,16,4,16,0.00
2013-3-21,29,26,22,26,18,8,87,70,44,30.07,29.87,10,3,10,0.00
2013-3-22,34,32,29,31,28,26,90,87,83,29.96,29.89,8,4,8,0.00
2013-3-23,40,35,32,33,30,28,93,82,64,29.97,29.78,16,7,16,0.00
2013-3-24,32,30,23,31,27,20,94,91,86,29.98,29.70,12,4,12,0.00
2013-3-25,35,28,21,28,23,18,91,82,70,30.24,29.95,10,3,10,0.00
2013-3-26,45,31,20,25,21,17,90,69,41,30.33,30.24,8,2,8,0.00
2013-3-27,53,37,24,33,27,17,80,67,43,30.27,30.15,10,3,10,0.00
2013-3-28,70,51,37,43,37,31,79,60,36,30.18,30.08,9,3,9,0.00
2013-3-29,70,54,39,46,39,35,88,61,31,30.16,30.07,12,5,12,0.00
2013-3-30,64,52,47,56,46,36,91,82,57,30.07,29.83,14,3,14,0.00
2013-3-31,69,56,46,50,42,29,94,63,34,29.93,29.87,12,3,12,0.00